timestamp_utc;nh3_ug_m3;co2_ppm;co_mg_m3;rh;no_ug_m3;no2_ug_m3;o3_ug_m3;pm10_ug_m3;pm25_ug_m3;so2_ug_m3;t;voc_index
07.03.2022 14:00;2,21;;0,11;41,49;1,07;0,57;93,73;3,8;0,66;;3,66;
07.03.2022 15:00;2,3;;0,13;42,41;0,66;0,55;93,19;15,2;3,55;;3,62;
07.03.2022 16:00;2,27;;0,13;44,61;0,21;0,48;95,02;24,59;2,41;;2,33;
07.03.2022 17:00;2,27;;0,13;45,57;0,19;0,5;92,32;8,42;0,68;;1,75;
07.03.2022 18:00;2,9;;0,21;48,29;6,38;5,82;80,88;13,31;0,69;;0,72;
07.03.2022 19:00;3,22;;0,24;50,08;11,57;11,29;57,82;13,34;0,47;;1,17;
07.03.2022 20:00;3,07;;0,22;58,49;9,66;8,68;47,46;11,54;0,31;;-1,69;
07.03.2022 21:00;3,17;;0,23;56,7;10,09;9,35;44,2;11,04;0,47;;-1,22;
07.03.2022 22:00;3,35;;0,25;58,7;12,69;12,82;34,46;10,6;0,36;;-1,77;
07.03.2022 23:00;3,11;;0,22;63,77;9,73;8,77;34,45;5,17;0,23;;-3,45;
08.03.2022 00:00;2,99;;0,21;67,78;7,68;5,97;38,1;8,73;0,19;;-4,71;
08.03.2022 01:00;2,91;;0,19;65,52;7,04;6,02;43,46;9,56;0,21;;-4;
08.03.2022 02:00;2,73;;0,18;59,99;1,71;0,69;56,02;4,98;0,14;;-2,34;
08.03.2022 03:00;2,72;;0,17;65,65;1,14;0,56;59,79;4,67;0,2;;-4,12;
08.03.2022 04:00;2,91;;0,18;66,54;1,64;0,63;55,64;7,1;0,18;;-4,39;
08.03.2022 05:00;2,97;;0,19;64,17;3,11;1,24;51,41;11,57;0,22;;-3,55;
08.03.2022 06:00;3,06;;0,2;66,56;3,15;1,09;57,04;3,24;0,21;;-4,54;
08.03.2022 07:00;3,33;;0,2;68,85;4,74;2,4;54,72;12,69;0,23;;-5,07;
08.03.2022 08:00;3,62;;0,21;57,62;7,68;5,98;49,89;29,3;0,49;;-0,35;
08.03.2022 09:00;3,12;;0,19;53,37;3,42;1,49;61,72;12,53;0,42;;2,01;
08.03.2022 10:00;2,59;;0,16;47,19;0,98;0,56;83,45;6,96;0,25;;4,14;
08.03.2022 11:00;2,56;;0,16;43,82;0,78;0,54;89,63;259,31;8,28;;5,04;
08.03.2022 12:00;2,27;;0,13;40,25;0,07;0,51;95,82;121,72;6,18;;6,21;
08.03.2022 13:00;2,32;;0,14;36,61;0,14;0,5;95,9;8,63;0,37;;7,96;
08.03.2022 14:00;2,36;;0,15;35,31;0,26;0,53;94,88;8,9;0,29;;8,86;
08.03.2022 15:00;2,38;;0,15;34,92;0,38;0,51;94,77;65,83;5,31;;8,73;
08.03.2022 16:00;2,4;;0,15;34,95;0,43;0,46;93,41;38,19;1,95;;7,85;
08.03.2022 17:00;2,48;;0,17;34,89;0,53;0,49;90,39;10,11;0,56;;7,59;
08.03.2022 18:00;3,47;;0,26;37;7,74;7,11;75,55;33,38;0,6;;6,93;
08.03.2022 19:00;3,23;;0,24;39,34;3,53;1,79;65,22;15,63;0,27;;5,43;
08.03.2022 20:00;3,91;;0,3;47,86;14,04;14,67;51,68;12,33;0,36;;2,71;
08.03.2022 21:00;3,79;;0,3;55,73;14,22;14,92;34,63;11,42;0,25;;-0,21;
08.03.2022 22:00;4,19;;0,31;59,55;22,11;25,7;10,26;12,03;0,24;;-1,45;
08.03.2022 23:00;4,26;;0,33;61,76;23,31;27,34;0,93;15,93;0,54;;-2,2;
09.03.2022 00:00;3,61;;0,27;64,47;11,13;10,68;10,25;6,31;0,12;;-3,1;
09.03.2022 01:00;3,61;;0,26;61,51;11,59;11,31;22,61;9,97;0,16;;-2,17;
09.03.2022 02:00;3,71;;0,25;61,11;14,2;14,88;20,57;9,28;0,2;;-2,16;
09.03.2022 03:00;3,64;;0,22;66,12;12,96;13,19;26,75;5,97;0,2;;-3,96;
09.03.2022 04:00;3,7;;0,23;68,04;14,56;15,38;25,04;8,58;0,22;;-4,73;
09.03.2022 05:00;4,19;;0,26;67,14;21,35;24,67;13,87;20,62;0,34;;-4,48;
09.03.2022 06:00;4,74;;0,3;66,98;28,15;33,97;0,08;19,91;0,43;;-4,55;
09.03.2022 07:00;4,96;;0,29;67,65;25,08;29,77;0,05;21,89;0,48;;-4,44;
09.03.2022 08:00;5,61;;0,29;57,24;31,91;39,12;0,05;23,63;0,4;;0,84;
09.03.2022 09:00;4,89;;0,26;53,25;21,23;24,51;0,05;17,13;0,44;;3,23;
09.03.2022 10:00;3,91;;0,23;42,49;9,81;8,9;5,3;17,03;0,22;;8,08;
09.03.2022 11:00;3,5;;0,2;43,9;4,36;2,01;37,72;17,28;0,38;;7,41;
09.03.2022 12:00;3,26;;0,18;40,45;2,84;0,96;55,2;9,95;0,36;;9,34;
09.03.2022 13:00;3,2;;0,18;35,56;2,99;1,2;57,7;18,65;0,37;;12,79;
09.03.2022 13:00;3,2;;0,18;35,56;2,99;1,2;57,7;18,65;0,37;;12,79;
09.03.2022 14:00;3,36;;0,19;33,82;3,36;1,33;56,31;14,7;0,26;;14,57;
09.03.2022 15:00;3,42;;0,2;33,8;3,91;1,7;50,75;11,34;0,35;;14,44;
09.03.2022 16:00;3,59;;0,21;33,62;4,51;2,26;43,37;16,38;0,38;;14,3;
09.03.2022 17:00;5;;0,29;40,35;19,56;22,29;13,69;58,13;1,42;;11,09;
09.03.2022 18:00;5,62;;0,32;52,86;28,68;34,7;0,06;29,92;0,75;;5,07;
09.03.2022 19:00;5,25;;0,33;57,45;27,21;32,69;0,05;25,86;0,53;;3,09;
09.03.2022 20:00;5,79;;0,33;57,34;36,48;45,37;0,05;29,3;0,51;;2,92;
09.03.2022 21:00;6,46;;0,37;60,61;47,23;60,08;0,05;28,08;1,31;;1,23;
09.03.2022 22:00;5,79;;0,33;64,17;43,08;54,4;0,05;15,87;0,6;;-0,27;
09.03.2022 23:00;4,96;;0,28;65,45;29,32;35,58;0,05;10,98;0,36;;-0,9;
10.03.2022 00:00;4,5;;0,25;65,61;19,81;22,56;0,05;6,76;0,34;;-1,28;
10.03.2022 01:00;4,08;;0,21;67,03;14,7;15,57;0,05;8,7;0,21;;-2,05;
10.03.2022 02:00;3,97;;0,2;67,9;15,17;16,21;0,05;12,28;0,2;;-2,5;
10.03.2022 03:00;3,99;;0,21;67,31;15,69;16,92;0,53;9,95;0,21;;-2,57;
10.03.2022 04:00;4;;0,21;67,79;17,73;19,71;2,66;5,92;0,18;;-2,84;
10.03.2022 05:00;4,16;;0,22;69,55;17,43;19,31;1,05;6,29;0,18;;-3,49;
10.03.2022 06:00;4,89;;0,27;67,13;27,5;33,09;0,06;13,72;0,27;;-2,86;
10.03.2022 07:00;5,67;;0,3;70,53;27,69;33,35;0,05;11,66;0,34;;-3,5;
10.03.2022 08:00;5,96;;0,29;57,83;28,68;34,7;0,05;9,64;0,39;;2,13;
10.03.2022 09:00;5,1;;0,23;52,61;15,34;16,45;0,05;6,12;0,44;;5,1;
10.03.2022 10:00;4,71;;0,21;47,04;9,77;8,82;4,9;16,51;0,49;;8,54;
10.03.2022 11:00;3,77;;0,18;41,03;4,74;3,4;49,69;129,13;4,62;;11,28;
10.03.2022 12:00;2,55;;0,13;37,68;0,47;0,51;92,69;238,29;7,48;;11,86;
10.03.2022 13:00;2,67;;0,14;34,69;0,67;0,51;93,83;10,18;0,36;;13,37;
10.03.2022 14:00;2,71;;0,15;32,96;0,57;0,49;93,43;5,73;0,5;;13,93;
10.03.2022 15:00;2,86;;0,15;32,55;0,85;0,5;92,25;19,7;1,73;;14,26;
10.03.2022 16:00;2,57;;0,14;30,64;0,27;0,51;93,19;63,03;3,89;;13,02;
10.03.2022 17:00;2,62;;0,14;31,2;0,29;0,51;91,85;11,5;0,69;;11,99;
10.03.2022 18:00;3,18;;0,17;37,39;1,33;0,6;85,42;13;0,41;;9,4;
10.03.2022 19:00;3,23;;0,19;37,92;1,54;0,65;83,2;12,52;0,24;;8,11;
10.03.2022 20:00;3,37;;0,19;39,75;2,38;0,83;78,12;16,68;0,36;;7,03;
10.03.2022 21:00;3,95;;0,21;43,07;5,47;3,21;70,28;11,21;0,22;;5,76;
10.03.2022 22:00;4,4;;0,26;52,02;9,9;9,12;48,49;12,49;0,16;;2,72;
10.03.2022 23:00;3,35;;0,18;50,98;1,75;0,81;65,15;4,38;0,21;;2,96;
11.03.2022 00:00;3,93;;0,22;61,8;7,29;5,43;56,04;13,02;0,29;;-0,3;
11.03.2022 01:00;3,77;;0,2;65,76;6,34;4,16;49,02;6,1;0,16;;-1,34;
11.03.2022 02:00;3,48;;0,18;61,52;3,25;1,96;55;3,93;0,26;;0,76;
11.03.2022 03:00;3,16;;0,16;61,42;1,33;0,65;71,66;8,46;0,21;;0,76;
11.03.2022 04:00;3,04;;0,15;60,78;0,68;0,51;78,43;5,9;0,25;;0,03;
11.03.2022 05:00;3;;0,16;59,75;0,83;0,54;81,85;13,64;0,24;;-1,18;
11.03.2022 06:00;3,11;;0,17;58,23;1,28;0,6;81,89;17,53;0,37;;-1,98;
11.03.2022 07:00;3,53;;0,2;55,55;2,98;1,45;76,95;26,43;0,44;;-1,34;
11.03.2022 08:00;3,46;;0,19;52,75;3,04;1,2;75,03;31,08;0,79;;0,48;
11.03.2022 09:00;3,04;;0,18;47,21;1,68;0,75;82,42;10,31;0,43;;2,9;
11.03.2022 10:00;2,93;;0,17;45,38;0,83;0,51;87,03;8,27;0,39;;4,68;
11.03.2022 11:00;2,95;;0,16;44,23;0,8;0,57;89,73;35,42;3,53;;6,17;
11.03.2022 12:00;3,32;;0,18;41,48;1,81;0,69;85,18;15,72;1,12;;8,91;
11.03.2022 13:00;3,33;;0,17;39,95;1,4;0,66;86,65;13,45;0,47;;10,4;
11.03.2022 14:00;3,31;;0,16;38,18;1,14;0,6;88,55;12,49;0,52;;11,74;
11.03.2022 15:00;3,24;;0,16;37,6;1,1;0,58;89,28;18,55;2,38;;12,04;
11.03.2022 16:00;3,08;;0,15;37,71;0,54;0,51;90,38;26,78;1,65;;11,28;
11.03.2022 17:00;3,06;;0,16;37,51;0,69;0,48;88,35;13,93;0,46;;9,56;
11.03.2022 18:00;3,02;;0,17;36,85;0,59;0,61;86,02;17,88;0,46;;8,09;
11.03.2022 19:00;3,11;;0,19;36,62;0,95;0,58;80,82;26,91;0,54;;7,28;
11.03.2022 20:00;3,5;;0,23;37,03;2,74;1;72,45;25,49;0,46;;7,02;
13.03.2022 02:00;4,44;;0,24;52,76;9,47;8,42;20,74;6,12;0,19;;2,01;
14.03.2022 16:00;2,97;;0,14;50,23;1,47;0,71;83,09;16,44;0,75;;12,69;
14.03.2022 18:00;5,01;;0,22;65,88;21,77;25,24;38,45;14,27;0,66;;7,85;
14.03.2022 19:00;5,29;;0,24;71,79;31,85;39,04;1,19;13,81;0,71;;5;
14.03.2022 20:00;5,17;;0,23;71,44;34;41,98;0,05;11,97;1,15;;4,53;
14.03.2022 21:00;5,73;;0,29;72,03;44,78;56,73;0,05;7,35;1,12;;3,9;
14.03.2022 22:00;5,12;;0,26;75,73;36,36;45,21;0,05;8,24;0,88;;2,54;
14.03.2022 23:00;4,99;;0,23;73,77;34,98;43,32;0,05;12,03;0,83;;3,23;
15.03.2022 00:00;5,31;;0,23;72,02;37,45;46,7;0,05;9,21;0,76;;3,88;
15.03.2022 01:00;5,02;;0,21;74,52;34,28;42,36;0,05;12,9;0,74;;3,07;
15.03.2022 02:00;5,06;;0,22;74,63;31,03;37,92;0,05;11,3;0,82;;3,23;
15.03.2022 03:00;5,03;;0,21;71,95;27,52;33,11;0,05;10,33;0,73;;4,08;
15.03.2022 04:00;4,82;;0,19;72,01;18;20,08;0,94;12,79;0,72;;4,21;
15.03.2022 05:00;4,84;;0,19;71,1;17,82;19,83;4,52;11,86;0,75;;4,52;
15.03.2022 06:00;5,53;;0,25;74,63;32,47;39,88;0,7;9,48;0,85;;3,59;
15.03.2022 07:00;7,06;;0,31;68,86;50,9;65,1;0,05;13,06;0,97;;5,65;
15.03.2022 08:00;5,25;;0,19;68,58;21,56;24,96;2,6;15,18;0,92;;6,05;
15.03.2022 09:00;5,7;;0,2;68,78;24,18;28,54;4,23;17,63;0,89;;6,36;
15.03.2022 10:00;5,74;;0,2;65,16;24,72;29,27;2,71;14,47;0,84;;8,19;
15.03.2022 11:00;5,72;;0,21;63,15;22,39;26,09;4,65;15,84;0,37;;9,08;
15.03.2022 12:00;5,98;;0,21;69,23;27,29;32,8;0,05;10,95;0,48;;8,12;
15.03.2022 13:00;6,19;;0,21;72,91;30,74;37,52;0,51;20,16;0,36;;7,88;
15.03.2022 14:00;5,97;;0,2;77,38;25,67;30,59;0,26;8,05;0,38;;7,6;
15.03.2022 15:00;6,74;;0,23;71,19;36,56;45,49;0,05;19,8;0,52;;9,63;
15.03.2022 16:00;6,89;;0,25;78,19;41,56;52,32;0,05;29,32;0,94;;8,11;
15.03.2022 17:00;6,22;;0,24;81,41;35;43,35;0,05;18,77;0,44;;7,46;
15.03.2022 18:00;6,66;;0,26;83,9;45,27;57,4;0,05;15,04;0,54;;6,79;
15.03.2022 19:00;7,02;;0,29;84,05;52,75;67,63;0,05;14,25;0,4;;6,85;
15.03.2022 20:00;6,32;;0,26;88,14;40,96;51,51;0,05;5,78;0,35;;5,79;
15.03.2022 21:00;6,5;;0,25;89,15;46,25;58,74;0,05;10,29;0,27;;5,58;
15.03.2022 22:00;6,55;;0,26;86,88;48,04;61,19;0,05;11,94;0,21;;6,05;
15.03.2022 23:00;6,45;;0,25;79,69;51,65;66,14;0,05;5,14;0,23;;7,89;
16.03.2022 00:00;6,1;;0,24;78,48;48,04;61,18;0,05;11,76;0,26;;8,06;
16.03.2022 01:00;6,08;;0,23;74,84;48,75;62,16;0,05;6,21;0,14;;8,7;
16.03.2022 02:00;5,41;;0,2;75,75;41,9;52,78;0,05;4,77;0,14;;7,5;
16.03.2022 03:00;5,04;;0,18;78,97;33,82;41,73;0,16;1,23;0,12;;6,09;
16.03.2022 04:00;4,33;;0,17;83,56;17,3;19,13;13,99;1,49;0,1;;4,18;
16.03.2022 05:00;4,27;;0,16;85;14,56;15,38;27,57;0,74;0,09;;3,6;
16.03.2022 06:00;4,45;;0,17;82,94;15,52;16,7;37,63;1,16;0,1;;4,04;
16.03.2022 07:00;4,54;;0,18;85,48;13,43;13,83;44,16;1;0,13;;3,63;
16.03.2022 08:00;4,09;;0,16;83,93;8,43;6,99;63,85;2,92;0,07;;4,23;
16.03.2022 09:00;3,54;;0,15;80,05;5,06;2,58;76;2,17;0,09;;5,39;
16.03.2022 10:00;3;;0,14;77,24;3,43;1,17;82,31;2,38;0,07;;6,33;
16.03.2022 11:00;3,06;;0,14;70,87;2,6;0,92;86,2;1,54;0,2;;8,58;
16.03.2022 12:00;3,11;;0,14;64,55;2,54;0,92;89,13;5,03;0,19;;11,16;
16.03.2022 13:00;3,31;;0,14;62,56;2,9;1,04;88,21;4,36;0,09;;12,12;
16.03.2022 14:00;3,29;;0,14;62,68;2,67;1;88,69;2,82;0,3;;11,44;
16.03.2022 15:00;3,42;;0,14;62,81;3,82;1,84;84,42;10,64;0,32;;11,39;
16.03.2022 16:00;3,39;;0,14;63,99;2,91;1,31;86,49;3,39;0,21;;10,53;
16.03.2022 17:00;3,29;;0,14;62,17;2,01;0,7;85,3;4,03;0,15;;10,21;
16.03.2022 18:00;4,17;;0,2;59,81;8,71;7,85;67,18;7,64;0,2;;11,15;
16.03.2022 19:00;4,56;;0,21;63,7;12,84;13,02;43,34;18,35;0,25;;10,04;
16.03.2022 20:00;4,86;;0,19;61,66;22,69;26,5;34,34;15,73;0,25;;11,09;
16.03.2022 21:00;4,73;;0,19;65,12;18,76;21,13;32,53;11,39;0,2;;9,64;
16.03.2022 22:00;3,98;;0,17;68,29;8,21;7,08;40,15;7,45;0,54;;8,26;
16.03.2022 23:00;3,47;;0,15;70,32;3,07;1,13;62,35;2,51;0,67;;7,17;
17.03.2022 00:00;3,35;;0,15;68,78;3,21;1,15;70,67;3,8;0,58;;7,44;
17.03.2022 01:00;3,74;;0,16;65,77;8,79;7,51;67,57;6,29;0,33;;8,75;
17.03.2022 02:00;3,98;;0,16;67,12;12,03;11,91;60,81;11,38;0,19;;8,28;
17.03.2022 03:00;4,07;;0,16;67,87;13,42;13,99;49,44;5,63;0,28;;7,79;
17.03.2022 04:00;3,89;;0,16;69,23;10,39;9,72;55,25;5,24;0,21;;6,94;
17.03.2022 05:00;4,67;;0,19;69,1;17,17;19,01;35,88;6,84;0,22;;7,03;
17.03.2022 06:00;4,32;;0,19;71,09;13,66;14,17;22,75;5,59;0,28;;6,2;
17.03.2022 07:00;4,34;;0,19;67,88;14,18;14,89;42,47;6,68;0,27;;7,18;
17.03.2022 08:00;4,8;;0,2;64,58;16,6;18,18;35,58;10,4;0,31;;8,69;
21.03.2022 06:00;3,42;;0,08;64,24;32,33;39,69;0,05;13,59;0,27;;1,53;
21.03.2022 07:00;2,68;;0,07;62,37;22,92;26,82;0,05;12,95;0,3;;2,2;
21.03.2022 08:00;2,36;;0,07;56,37;9,43;8,36;0,96;7,82;0,22;;4,51;
21.03.2022 09:00;2,33;;0,07;46,69;8,34;6,87;5,89;16,02;0,33;;9,05;
21.03.2022 10:00;2,33;;0,07;42,88;6,33;4,28;17,5;13;0,32;;10,89;
21.03.2022 11:00;2,3;;0,07;40,26;3,84;2,25;34,16;8,71;0,31;;12,43;
21.03.2022 12:00;2,28;;0,07;40,45;0,91;0,59;62,63;4,33;0,32;;12,91;
21.03.2022 13:00;2,24;;0,07;37,33;0,63;0,6;83,27;4,13;0,29;;14,11;
21.03.2022 14:00;2,24;;0,07;35,9;0,5;0,67;87,26;11,83;0,49;;15,15;
21.03.2022 15:00;2,27;;0,07;35,99;0,31;0,49;81,81;21,61;0,46;;14,84;
21.03.2022 16:00;2,37;;0,07;38,31;1,06;0,72;80,96;17,29;0,55;;13,45;
21.03.2022 17:00;2,52;;0,08;40,15;3,11;1,34;53,2;21,32;0,55;;13,31;
21.03.2022 18:00;2,67;;0,08;40,88;5,78;4,71;43,87;16,36;0,52;;12,43;
21.03.2022 19:00;2,75;;0,08;41,86;7,13;5,31;19,92;23,4;0,44;;11,2;
21.03.2022 20:00;2,59;;0,08;43,37;5,53;4,15;24,69;12,7;0,36;;9,63;
21.03.2022 21:00;2,86;;0,07;55,1;12,85;13,04;5,27;21,82;0,35;;5,22;
21.03.2022 22:00;2,8;;0,07;63,16;12,25;12,22;1,62;16,32;0,28;;2,05;
21.03.2022 23:00;2,76;;0,07;63,96;11,51;11,2;2,3;12,8;0,26;;1,46;
22.03.2022 00:00;2,71;;0,07;66,53;10,51;9,84;11,12;8,89;0,24;;0,27;
22.03.2022 01:00;2,73;;0,07;67,43;11,96;11,82;10,99;8,08;0,26;;-0,21;
22.03.2022 02:00;2,84;;0,07;65,21;16,68;18,27;5,77;13,32;0,23;;0,56;
22.03.2022 03:00;2,94;;0,07;60,78;16,61;18,19;0,09;8,7;0,19;;1,98;
22.03.2022 04:00;2,81;;0,07;60,35;10,74;10,15;5,56;8,86;0,25;;2,07;
22.03.2022 05:00;2,91;;0,07;68,98;16,11;17,5;3,61;7,4;0,21;;-0,99;
22.03.2022 06:00;2,94;;0,07;59,99;10,84;10,35;3,52;22,16;0,77;;1,88;
22.03.2022 07:00;2,88;;0,07;55,75;7,71;6,3;14,72;48,63;0,64;;3,64;
22.03.2022 08:00;2,95;;0,07;59,1;7,2;5,34;25,12;4,94;0,26;;3,1;
22.03.2022 09:00;3,13;;0,07;51,33;8,97;7,78;13,55;7,12;0,31;;7;
22.03.2022 10:00;2,89;;0,07;43,51;5,06;3,18;37,77;16,55;0,3;;10,41;
22.03.2022 11:00;2,68;;0,07;39,53;2,09;0,78;57,44;13,01;0,26;;12,49;
22.03.2022 12:00;2,72;;0,07;38,38;1,22;0,63;69,13;13,27;0,39;;13,88;
22.03.2022 13:00;2,94;;0,07;34,79;2,39;1,45;62,74;8,08;0,38;;17,38;
22.03.2022 14:00;2,72;;0,07;31,94;1,43;0,81;63,33;24,12;0,69;;19,83;
22.03.2022 15:00;2,57;;0,07;31,61;0,81;0,69;69,88;10;0,79;;18,62;
22.03.2022 16:00;2,49;;0,07;30,58;0,87;0,63;76,91;18,91;0,98;;18,08;
22.03.2022 17:00;2,39;;0,06;30,39;0,31;0,56;76,67;18,46;1;;16,53;
22.03.2022 18:00;3,14;;0,08;35,17;9,9;10,03;46,5;27,41;0,84;;14,61;
22.03.2022 19:00;3,73;;0,08;46,61;19,31;21,88;0,64;16,1;0,97;;9,1;
22.03.2022 20:00;3,43;;0,08;46,86;13,47;13,88;0,05;12,13;0,9;;8,14;
22.03.2022 21:00;3,4;;0,07;52,74;14,56;15,38;0,05;15,41;0,95;;5,66;
22.03.2022 22:00;3,38;;0,07;58,95;16,7;18,31;0,05;20,58;1,33;;3,29;
22.03.2022 23:00;3,32;;0,07;59,7;19,88;22,66;0,05;6,28;1,09;;2,98;
23.03.2022 00:00;3,16;;0,07;61,65;15,15;16,19;0,05;12,79;0,94;;1,91;
23.03.2022 01:00;3,39;;0,07;63,19;22,27;25,93;0,05;22,4;1,27;;1,18;
23.03.2022 02:00;3,06;;0,06;64,88;12,61;12,71;0,4;6,01;0,16;;0,37;
23.03.2022 03:00;3,08;;0,06;63,43;14,08;14,73;4,46;3,45;0,26;;0,85;
23.03.2022 04:00;3,21;;0,06;64,89;18,43;20,67;1,56;14,4;0,2;;0,05;
23.03.2022 05:00;3,65;;0,07;64,01;33,95;41,91;0,05;9,52;0,24;;0,36;
23.03.2022 06:00;4;;0,07;67,75;37,39;46,62;0,05;10,42;0,4;;-1,07;
23.03.2022 07:00;4,76;;0,08;60,08;49,53;63,22;0,05;10,32;0,37;;2,29;
23.03.2022 08:00;4,59;;0,08;49,05;41,42;52,13;0,05;10,07;0,23;;7,71;
23.03.2022 09:00;4,32;;0,08;46,13;28,86;34,95;0,05;28,97;0,29;;9,96;
23.03.2022 10:00;3,94;;0,08;42,48;19,66;22,36;0,05;31,29;0,4;;12,23;
23.03.2022 11:00;4,22;;0,08;39,57;18,36;20,58;0,05;35,71;0,37;;14,53;
23.03.2022 12:00;3,32;;0,07;32,53;6,46;5,52;1,65;11,46;0,36;;17,94;
23.03.2022 13:00;2,56;;0,06;30,38;0,73;0,61;54,15;11,89;0,21;;18,29;
23.03.2022 14:00;2,53;;0,06;27,35;0,8;0,62;66,84;7,75;0,21;;21,29;
23.03.2022 15:00;2,38;;0,06;26,88;0,31;0,54;67,51;13,32;0,24;;21,05;
23.03.2022 16:00;2,47;;0,06;27,36;0,85;0,71;67,3;15,79;0,41;;19,92;
23.03.2022 17:00;2,38;;0,06;28,08;0,26;0,52;70,03;13,79;0,25;;17,53;
23.03.2022 18:00;3,31;;0,08;37,24;6,11;5,26;44,81;9,76;0,43;;12,81;
23.03.2022 19:00;3,5;;0,07;47,6;9,24;8,1;6,21;19,11;0,28;;8,27;
23.03.2022 20:00;3,41;;0,07;50,71;10,16;9,36;0,79;9,7;0,19;;6,75;
23.03.2022 21:00;3,89;;0,07;51,49;20,01;22,84;0,16;16,15;0,27;;6,31;
23.03.2022 22:00;3,41;;0,06;54,36;11,2;10,77;0,05;9,69;0,22;;4,95;
23.03.2022 23:00;3,68;;0,07;56,62;21,26;24,55;0,05;5,93;0,31;;4,09;
24.03.2022 00:00;4,02;;0,07;61,03;30,79;37,59;0,05;15,68;0,28;;2,41;
24.03.2022 01:00;3,65;;0,06;61,93;21,71;25,16;0,05;9,69;0,3;;2,03;
24.03.2022 02:00;3,5;;0,06;64,94;16,98;18,7;0,05;18,36;0,31;;0,85;
24.03.2022 03:00;3,56;;0,06;63,54;21,2;24,47;0,05;14,89;0,23;;1,31;
24.03.2022 04:00;3,62;;0,06;66,11;23,27;27,29;0,05;15,98;0,22;;0,19;
24.03.2022 05:00;3,81;;0,07;65,26;30,22;36,81;0,05;14,87;0,26;;0,45;
24.03.2022 06:00;4,28;;0,07;66,17;41,24;51,88;0,05;19,83;0,35;;0;
24.03.2022 07:00;4,59;;0,07;57,1;44,35;56,14;0,05;10,29;0,3;;3,96;
24.03.2022 08:00;4,72;;0,07;55,55;37,99;47,44;0,05;13,4;0,32;;5,53;
24.03.2022 09:00;4,48;;0,07;45,85;27,92;33,65;0,05;22,64;0,39;;10,61;
24.03.2022 10:00;3,3;;0,06;36,65;5,53;3,72;11,6;18,24;0,8;;14,6;
24.03.2022 11:00;2,88;;0,06;33,76;1,91;1,04;48,97;11,62;0,76;;16,26;
24.03.2022 12:00;2,45;;0,06;29,71;0,08;0,49;66,57;9,52;0,86;;19,26;
24.03.2022 13:00;2,32;;0,05;27,7;0,07;0,48;76,04;7,26;0,46;;19,75;
24.03.2022 14:00;2,36;;0,06;26,24;0,11;0,52;78,83;14,94;0,18;;21,86;
24.03.2022 15:00;2,31;;0,05;26,29;0,06;0,46;78,39;14,89;0,21;;22,15;
24.03.2022 16:00;2,34;;0,05;27,2;0,03;0,48;76,78;15,54;0,26;;20,63;
24.03.2022 17:00;2,63;;0,06;30,32;0,94;0,76;65,01;18,07;0,34;;19,09;
24.03.2022 18:00;3,98;;0,08;42,62;19,25;21,96;15,05;29,53;2,31;;12,8;
24.03.2022 19:00;4,2;;0,08;46,92;19,31;21,88;0,05;18,68;0,89;;10,03;
24.03.2022 20:00;3,85;;0,08;52,04;12,15;12,09;0,05;21,8;0,45;;8,35;
24.03.2022 21:00;3,68;;0,07;55,37;10,01;9,2;0,05;23,1;0,33;;6,67;
24.03.2022 22:00;3,46;;0,07;57,98;6,15;3,99;1,11;8,62;0,42;;5,33;
24.03.2022 23:00;3,56;;0,07;57,25;9,07;7,87;2,17;13,8;0,38;;5,59;
25.03.2022 00:00;3,47;;0,06;60,65;8,43;7,04;6,94;21,01;0,37;;4,01;
25.03.2022 01:00;3,73;;0,07;63,21;15,88;17,19;0,33;20,21;0,37;;3,13;
25.03.2022 02:00;3,7;;0,06;64,07;17,67;19,64;0,05;19,11;0,39;;2,67;
25.03.2022 03:00;3,8;;0,07;63,27;23,88;28,13;0,05;10,47;0,35;;2,75;
25.03.2022 04:00;3,8;;0,06;69,16;23,03;26,97;0,05;11,96;0,33;;0,6;
25.03.2022 05:00;3,82;;0,06;69,11;22,98;26,89;0,05;15,28;0,33;;0,49;
25.03.2022 06:00;4,63;;0,07;68,9;40,57;50,97;0,05;15,48;0,39;;0,44;
25.03.2022 07:00;5,78;;0,08;58,57;56,21;72,37;0,05;23,51;0,4;;4,8;
25.03.2022 08:00;4,73;;0,06;58,76;28,51;34,47;0,05;16,23;0,38;;5,7;
25.03.2022 09:00;3,6;;0,06;50,75;4,55;2,3;6,68;11,01;0,46;;8,65;
25.03.2022 10:00;3,52;;0,06;46,53;3,55;1,65;28,02;8,84;0,51;;12,05;
25.03.2022 11:00;3,22;;0,06;41,72;1,2;0,62;43,15;15,68;0,45;;14,86;
25.03.2022 12:00;2,86;;0,06;37,45;0,1;0,51;69,28;13,56;0,39;;17,49;
25.03.2022 13:00;2,9;;0,06;33,42;0,36;0,51;76,95;15,95;0,45;;19,8;
25.03.2022 14:00;2,59;;0,05;31,8;0,08;0,51;84,76;12,85;0,32;;19,86;
25.03.2022 15:00;2,47;;0,05;32,87;0,04;0,48;90,67;12,89;0,88;;18,49;
25.03.2022 16:00;2,39;;0,05;34,41;0,02;0,54;92,23;11,42;0,85;;16,46;
25.03.2022 17:00;2,45;;0,05;35,19;0,06;0,49;89,23;10,61;0,48;;15,35;
25.03.2022 18:00;2,65;;0,06;35,7;0,25;0,54;82,35;9,97;0,47;;14,46;
25.03.2022 19:00;3,43;;0,08;47,12;3,09;1,41;52,34;37,24;0,54;;9,65;
25.03.2022 20:00;3,52;;0,07;52,56;4,45;2,11;34,33;29,38;0,54;;7,46;
25.03.2022 21:00;3,35;;0,06;47,41;4,37;4,23;36,15;17,23;0,51;;9,01;
25.03.2022 22:00;2,91;;0,06;46,92;0,08;0,51;72,56;14,89;0,53;;8,61;
25.03.2022 23:00;2,92;;0,06;48,76;0,08;0,51;72,19;21,54;0,58;;8,05;
26.03.2022 00:00;2,92;;0,06;50,55;0,08;0,5;72,44;11,39;0,66;;7,15;
26.03.2022 01:00;3,02;;0,06;50,46;1,06;0,61;66,99;19,85;0,65;;7,39;
26.03.2022 02:00;3,05;;0,06;53,01;1,58;0,76;60,95;14,67;0,5;;6,1;
26.03.2022 03:00;2,92;;0,06;53,09;0,33;0,53;74,79;14,08;0,54;;5,74;
26.03.2022 04:00;3,17;;0,06;57,92;2,65;0,88;62,82;25,19;0,61;;4,15;
26.03.2022 05:00;3,33;;0,06;58,11;3,95;1,91;52,18;19,24;0,57;;4,01;
26.03.2022 06:00;3,1;;0,06;54,34;1,67;0,66;57,67;19,99;0,73;;5,47;
26.03.2022 07:00;3,02;;0,06;57,41;0,85;0,55;65,63;21,12;0,51;;4,9;
26.03.2022 08:00;3,45;;0,07;56,16;3,58;2,52;56,77;31,35;1;;6,43;
26.03.2022 09:00;3,58;;0,07;51,54;2,6;1,31;45,64;15,15;0,89;;9,3;
26.03.2022 10:00;3,31;;0,06;45,63;1,07;0,59;57,22;21,63;1,13;;12,63;
26.03.2022 11:00;3,09;;0,06;39,94;0,47;0,57;68,66;17,94;0,9;;15,35;
26.03.2022 12:00;2,58;;0,05;37,75;0,03;0,5;90,1;7,16;0,81;;15,69;
26.03.2022 13:00;2,54;;0,05;36,88;0,02;0,5;93,79;8,57;0,85;;16,27;
26.03.2022 14:00;2,54;;0,05;33,51;0,03;0,47;92,9;8,05;0,86;;17,76;
26.03.2022 15:00;2,61;;0,05;32,62;0,03;0,47;91,06;21,09;1,69;;18,38;
26.03.2022 16:00;2,49;;0,05;33,7;0,02;0,49;92,42;28,2;1,79;;16,44;
26.03.2022 17:00;2,59;;0,05;35,47;0,02;0,47;92,18;16,07;1,58;;15,27;
26.03.2022 18:00;3,58;;0,07;36,39;4,19;3,49;75,24;61,78;1,75;;15,12;
26.03.2022 19:00;4,17;;0,08;50,16;13;13,25;35,91;30,17;1,68;;9,34;
26.03.2022 20:00;3,89;;0,07;55,19;11,32;10,95;18,36;51,27;1,55;;7,29;
26.03.2022 21:00;3,69;;0,06;58,3;9,24;8,1;19,67;39,15;1,48;;6,21;
26.03.2022 22:00;4,05;;0,07;58,16;16,61;18,18;9,35;30,57;1,68;;6,45;
26.03.2022 23:00;4;;0,07;62,3;16,65;18,24;0,32;30,4;1,2;;4,82;
27.03.2022 00:00;4,24;;0,07;61,61;24,08;28,41;0,05;34,17;0,85;;4,95;
27.03.2022 01:00;4,16;;0,06;66,97;22,75;26,58;0,05;51,1;0,95;;3;
27.03.2022 02:00;3,94;;0,06;67,64;18,62;20,94;0,05;30,9;0,85;;2,84;
27.03.2022 03:00;3,5;;0,06;62,06;6,72;6,36;16,28;40,09;0,72;;5,28;
27.03.2022 04:00;3,4;;0,06;59,35;3,9;2,12;45,64;32,54;0,75;;6,39;
27.03.2022 05:00;3,6;;0,06;60,22;9,9;9;40,62;20,84;0,62;;5,72;
27.03.2022 06:00;3,68;;0,06;65,31;12,35;12,36;32,5;19,31;0,61;;3,81;
27.03.2022 07:00;3,67;;0,06;59,89;8,49;7,12;27,28;19,24;0,42;;7,11;
27.03.2022 08:00;3,46;;0,06;59,96;3,07;1,32;46,63;5,41;0,42;;8,21;
27.03.2022 09:00;3,49;;0,06;55,19;2,41;0,91;58,98;9,93;1,07;;11,01;
27.03.2022 10:00;3,24;;0,06;51,12;1,01;0,57;71,79;13,13;0,94;;13,53;
27.03.2022 11:00;2,92;;0,05;43,23;0,16;0,53;81,34;8,84;0,92;;16,23;
27.03.2022 12:00;2,7;;0,05;38,56;0,05;0,47;86,96;13,31;1,02;;18,1;
27.03.2022 13:00;2,59;;0,05;37,52;0,08;0,52;90,21;9,84;0,77;;19,25;
27.03.2022 14:00;2,68;;0,05;37,46;0,04;0,51;88,84;4,3;0,8;;20,49;
27.03.2022 15:00;2,74;;0,06;37,74;0,24;0,48;85,3;9,73;0,84;;20,63;
27.03.2022 16:00;2,84;;0,06;38,72;0,18;0,51;77,66;11,94;0,62;;20,45;
27.03.2022 17:00;3,2;;0,07;40,81;0,86;0,65;64;8,9;0,19;;19,26;
27.03.2022 18:00;4,17;;0,08;46,6;17,37;19,73;24,19;24,99;0,49;;16,81;
27.03.2022 19:00;4,4;;0,08;58,41;20,78;23,89;0,05;15,22;0,24;;11,46;
27.03.2022 20:00;4,43;;0,07;63,44;23,66;27,82;0,05;12,26;0,46;;9,75;
27.03.2022 21:00;4,16;;0,07;65,96;17,55;19,47;0,05;10,86;0,19;;9,1;
27.03.2022 22:00;4,18;;0,07;66,85;22,34;26,03;0,05;12,64;0,27;;8,41;
27.03.2022 23:00;4,1;;0,06;73,12;22,98;26,89;0,05;17,64;0,32;;6,04;
28.03.2022 00:00;4,13;;0,06;72,54;26,69;31,97;0,05;8,95;0,23;;5,93;
28.03.2022 01:00;4,09;;0,06;72,54;29,11;35,29;0,05;12,44;0,21;;5,52;
28.03.2022 02:00;3,97;;0,06;74,44;29,41;35,7;0,05;13,64;0,16;;4,7;
28.03.2022 03:00;4,02;;0,06;73,26;34,1;42,12;0,05;7,63;0,14;;4,45;
28.03.2022 04:00;4,43;;0,07;75,32;42,26;53,28;0,05;15,23;0,13;;3,36;
28.03.2022 05:00;5,18;;0,07;71,85;56,5;72,77;0,05;9,84;0,21;;3,86;
28.03.2022 06:00;4,97;;0,07;74,97;52,26;66,96;0,05;13,58;0,27;;2,65;
28.03.2022 07:00;5,38;;0,07;69,58;53,36;68,47;0,05;26,93;0,5;;6,33;
28.03.2022 08:00;6,05;;0,08;60,73;53,55;68,73;0,05;28,94;0,57;;10,9;
28.03.2022 09:00;5,4;;0,08;55,78;39,8;49,91;0,04;18,62;0,42;;13,38;
28.03.2022 10:00;4,14;;0,07;46,72;12,53;12,77;0,05;28,54;0,97;;14,87;
28.03.2022 11:00;3,51;;0,06;42,68;3,31;1,19;14,32;16,91;1;;16,64;
28.03.2022 12:00;2,76;;0,05;39,85;0,1;0,54;69,53;12,73;0,96;;17,45;
28.03.2022 13:00;2,7;;0,05;36,83;0,09;0,44;82,68;19,52;0,96;;19,5;
28.03.2022 14:00;2,56;;0,05;34,25;0,06;0,53;83,95;18,19;0,98;;20,56;
28.03.2022 15:00;2,41;;0,05;31,68;0,03;0,5;87,5;16,59;1,82;;20,55;
28.03.2022 16:00;2,62;;0,06;34,98;0,22;0,53;83,6;11,03;0,91;;18,09;